Location: Ferintosh
(52.7647°N, 112.9692°W)
Time: 13:07:13
(UTC+00:00)

Transit 2A - Pass Details

Date: 19 May 2024
Orbit: 593 x 959 km, 66.7° (Epoch: 14 June)

Event Time Altitude Azimuth Distance (km) Brightness Sun altitude
Rises 06:30:27 0° 186° (S) 2,914 - -16.3°
Reaches altitude 10° 06:32:49 10° 176° (S) 2,053 - -16.3°
Exits shadow 06:35:35 27° 144° (SE) 1,294 6.7 -16.4°
Maximum altitude 06:36:54 31° 114° (ESE) 1,194 6.7 -16.5°
Drops below altitude 10° 06:41:22 10° 53° (NE) 2,256 8.8 -16.6°
Sets 06:44:05 0° 44° (NE) 3,252 9.8 -16.7°
